Showing default

OTP-2, 63235

Orbit data source: Space-Track

OTP-2, 63235 is a payload satellite owned by Rogue Space (US) in SSO that was launched on Sat, 15 Mar 2025 UTC via an FALCON 9 launch vehicle from the Air Force Western Test Range (AFWTR). Payload-class satellites include a variety of spacecraft equipped with specific instruments for various scientific and technological missions. These include communications satellites like Starlink; space stations such as the ISS; scientific satellites like the Hubble; Earth observation satellites from companies like Planet Labs, Umbra, and HawkEye 360; GPS; miniature CubeSats for education and research; and military/defense satellites.

Loading next visibility...
Identifier
63235, 2025-052AB
Orbit
SSO
Country
Flag of USUS
Related business
Manufacturer
Rogue Space
Mission
Operational Commercial Technology
Bus & Motor
CUBESAT 8U, Unknown motor
Mass
11 kg wet, 11 kg dry
Launch date (UTC)
2025-03-15 (1 year ago)
Launch vehicle
FALCON 9
Launch site
Air Force Western Test Range (AFWTR)
Object type
Payload
Rocket body
Debris
Shape & HBR
Box + 2 Pan, 0.2 m
Radar Cross Section
0.055 m², Small (<0.1 m²)

Expand to show TLE details & history
Last TLE update: 1 day ago

TLE from 1 day ago
0 OTP-2
1 63235U 25052AB  26135.26045850  .00003936  00000-0  16785-3 0  9991
2 63235  97.3912  28.1867 0004404 283.0142  77.0603 15.23501438 64854
Epoch: 2026-05-15T06:15Z
TLE epoch observation values (Epoch: 2026-05-15T06:15:03.614Z)
Latitude
-0.00004°
Longitude
61.42732°
Altitude
497.708 km
Speed
7.616 km/s
True Right ascension
01h 52m 44s
True Declination
0° 00' 00"
Sunlit
Object was in daylight at epoch
Visualization orbit readout
Latitude
Unknown
Longitude
Unknown
Altitude
Unknown
Speed
Unknown
Apparent Right ascension
Unknown
Apparent Declination
Unknown
Sunlit
N/A
Visualization observer readout
Local Sidereal Time
19:51:42
Azimuth
Unknown
Elevation
Unknown
Doppler factor
Unknown
Orbital elements
Apogee altitude
495.275 km
Perigee altitude
489.224 km
Semi-major axis
6,870.387 km
Eccentricity
0.00044
Inclination
97.3912°
RAAN
28.1867°
Arg. of periapsis
283.0142°
True anomaly
77.10949°
Mean anomaly
77.0603°
Eccentric anomaly
77.08489°
Mean motion
3.81128 °/min
Orbital period
94.46 mins
BSTAR
0.00016785
Loading maneuver chart data...
Computing Atmospheric mass density...
Loading historical data...
Loading historical data...
Loading historical data...
Loading historical data...
Loading historical data...
Loading historical data...
Loading historical data...

Documentation

Showing up to 5 results
|